Terminal Aerodrome Forecast
Issued by NWS

Current Version | Previous Version | Graphics & Text | Print | Product List | Glossary On
Versions: 1 2 3 4 5 6 7 8 9 10 11 12 13 14 15 16 17 18 19 20 21 22 23 24 25 26 27 28 29
000
FTUS41 KILN 280500
TAFLCK
TAF
KLCK 280520Z 2806/2906 29014G24KT P6SM VCSH OVC015
      TEMPO 2806/2809 5SM BR OVC008
     FM281000 30014G24KT P6SM BKN025
     FM281400 32014G26KT P6SM SCT040
     FM282200 32012KT P6SM SCT250
     FM290500 18003KT P6SM FEW050 SCT250=

USA.gov is the U.S. government's official web portal to all federal, state and local government web resources and services.